PSLV R/B (46915 NORAD) Tracking and Keplerian Element Data

This shows tracking and keplerian element data for the satellite.

Feedback or suggestion? Click here.




ElementValue
Catalog46915
NamePSLV R/B
Epoch Orbit274
Epoch Day330.52291732
Epoch Year2020
RAAN350.905
Inclination36.8512
Eccentricity0.0040988
Argument of Perigee227.9978
Mean Anonmoly131.7273
Mean Motion15.07596062
Decay Rate6.67E-06
L11 46915U 20081L 20330.52291732 .00000667 00000-0 47589-4 0 9991
L22 46915 36.8512 350.9050 0040988 227.9978 131.7273 15.07596062 2745

Live tracking and technical data element details for PSLV R/B (NORAD 46915). PSLV R/B can be tracked NOW for your location showing map with azimuth and elevation plus other details from your city location.

Track the satellite on the map from your city or location and see movement details for azimuth, elevation, latitude, longitude, range, height, and movement on the map or in text.







IsCatalogInMostPopularTable: catalog: 46915, numindb: 6
Update: records affected: 1



GetName: 46915 PSLV R/B

Hit Count: updated at: Thu, 26 Nov 2020 17:59:44 GMT